DEVICE NETWORK
Gateway Status
13 ESP · realtime ~1s · history 60s
Weather
WS-MOD-01
ONLINE
Actuator
ACT-MOD-01
OFFLINE
Mainboard L3
MB-L3-01
ONLINE
Mainboard L5
MB-L5-01
ONLINE
Remote AC
AC-REMOTE-01
ONLINE
PZEM L3-01
PWR-L3-01
OFFLINE
PZEM L3-02
PWR-L3-02
OFFLINE
PZEM L3-03
PWR-L3-03
OFFLINE
PZEM L3-04
PWR-L3-04
OFFLINE
PZEM L5-01
PWR-L5-01
ONLINE
PZEM L5-02
PWR-L5-02
ONLINE
PZEM L5-03
PWR-L5-03
OFFLINE
PZEM L5-04
PWR-L5-04
OFFLINE
REPORT FILTER
DATABASE HISTORY
Periode & Sensor
REPORT RESULT
Data Sensor
31/08/2026 — 06/09/2026
EXPORT CSV
| NO | TANGGAL | WAKTU | DEVICE | CHANNEL | SENSOR | VALUE | UNIT |
|---|---|---|---|---|---|---|---|
| 3901 | 06/09/2026 | 23:02:00 | MB-L3-01Mainboard Lantai 3 | L3-RAD-02 | Radiation 2 | 0.00 | W/m² |
| 3902 | 06/09/2026 | 23:02:00 | MB-L5-01Mainboard Lantai 5 | L5-ST-01 | Surface Temperature 1 | 24.90 | °C |
| 3903 | 06/09/2026 | 23:02:00 | MB-L3-01Mainboard Lantai 3 | L3-AI-05 | Analog Input 5 | 3.12 | V |
| 3904 | 06/09/2026 | 23:02:00 | MB-L5-01Mainboard Lantai 5 | L5-HFT-02 | Heat Flow Temperature 2 | 24.10 | °C |
| 3905 | 06/09/2026 | 23:02:00 | MB-L3-01Mainboard Lantai 3 | L3-LUX-02 | Illuminance / LUX 2 | 0.20 | lux |
| 3906 | 06/09/2026 | 23:02:00 | PWR-L5-02Power Meter L5 PZEM 02 | PZEM-L5-02-POWER | PZEM L5-02 Active Power | 0.00 | W |
| 3907 | 06/09/2026 | 23:01:00 | PWR-L5-02Power Meter L5 PZEM 02 | PZEM-L5-02-CURR | PZEM L5-02 Current | 0.00 | A |
| 3908 | 06/09/2026 | 23:01:00 | MB-L3-01Mainboard Lantai 3 | L3-LUX-06 | Illuminance / LUX 6 | 0.30 | lux |
| 3909 | 06/09/2026 | 23:01:00 | WS-MOD-01Weather Station Module | WS-PRES | Tekanan Udara | 912.00 | hPa |
| 3910 | 06/09/2026 | 23:01:00 | MB-L5-01Mainboard Lantai 5 | L5-SHT-02-T | SHT20 2 Temperature | 29.30 | °C |
| 3911 | 06/09/2026 | 23:01:00 | MB-L3-01Mainboard Lantai 3 | L3-LUX-04 | Illuminance / LUX 4 | 0.10 | lux |
| 3912 | 06/09/2026 | 23:01:00 | AC-REMOTE-01Remote AC | AC-SETPOINT | AC Set Temperature | 23.00 | °C |
| 3913 | 06/09/2026 | 23:01:00 | PWR-L5-01Power Meter L5 PZEM 01 | PZEM-L5-01-POWER | PZEM L5-01 Active Power | 10.50 | W |
| 3914 | 06/09/2026 | 23:01:00 | MB-L3-01Mainboard Lantai 3 | L3-AI-01 | Analog Input 1 | 3.12 | V |
| 3915 | 06/09/2026 | 23:01:00 | MB-L5-01Mainboard Lantai 5 | L5-SHT-03-RH | SHT20 3 Humidity | 45.00 | %RH |
| 3916 | 06/09/2026 | 23:01:00 | MB-L3-01Mainboard Lantai 3 | L3-SHT-02-RH | SHT20 2 Humidity | 44.40 | %RH |
| 3917 | 06/09/2026 | 23:01:00 | MB-L5-01Mainboard Lantai 5 | L5-SHT-01-T | SHT20 1 Temperature | 29.00 | °C |
| 3918 | 06/09/2026 | 23:01:00 | MB-L3-01Mainboard Lantai 3 | L3-SHT-03-RH | SHT20 3 Humidity | 44.70 | %RH |
| 3919 | 06/09/2026 | 23:01:00 | MB-L5-01Mainboard Lantai 5 | L5-LUX-03 | Illuminance / LUX 3 | 0.20 | lux |
| 3920 | 06/09/2026 | 23:01:00 | MB-L5-01Mainboard Lantai 5 | L5-SHT-03-T | SHT20 3 Temperature | 29.30 | °C |
| 3921 | 06/09/2026 | 23:01:00 | MB-L3-01Mainboard Lantai 3 | L3-AI-06 | Analog Input 6 | 3.12 | V |
| 3922 | 06/09/2026 | 23:01:00 | MB-L5-01Mainboard Lantai 5 | L5-AI-03 | Analog Input 3 | 3.05 | V |
| 3923 | 06/09/2026 | 23:01:00 | MB-L5-01Mainboard Lantai 5 | L5-SHT-02-RH | SHT20 2 Humidity | 44.60 | %RH |
| 3924 | 06/09/2026 | 23:01:00 | PWR-L5-02Power Meter L5 PZEM 02 | PZEM-L5-02-FREQ | PZEM L5-02 Frequency | 50.00 | Hz |
| 3925 | 06/09/2026 | 23:01:00 | MB-L3-01Mainboard Lantai 3 | L3-RAD-01 | Radiation 1 | 1.00 | W/m² |
| 3926 | 06/09/2026 | 23:01:00 | PWR-L5-01Power Meter L5 PZEM 01 | PZEM-L5-01-ENERGY | PZEM L5-01 Energy | 0.05 | kWh |
| 3927 | 06/09/2026 | 23:01:00 | MB-L5-01Mainboard Lantai 5 | L5-BGT-02 | Black Globe Temperature 2 | 27.00 | °C |
| 3928 | 06/09/2026 | 23:01:00 | PWR-L5-02Power Meter L5 PZEM 02 | PZEM-L5-02-VOLT | PZEM L5-02 Voltage | 227.30 | V |
| 3929 | 06/09/2026 | 23:01:00 | MB-L5-01Mainboard Lantai 5 | L5-AI-06 | Analog Input 6 | 3.05 | V |
| 3930 | 06/09/2026 | 23:01:00 | AC-REMOTE-01Remote AC | AC-POWER | AC Power State | 1.00 | state |
| 3931 | 06/09/2026 | 23:01:00 | MB-L3-01Mainboard Lantai 3 | L3-AI-04 | Analog Input 4 | 3.12 | V |
| 3932 | 06/09/2026 | 23:01:00 | MB-L3-01Mainboard Lantai 3 | L3-LUX-05 | Illuminance / LUX 5 | 0.30 | lux |
| 3933 | 06/09/2026 | 23:01:00 | MB-L5-01Mainboard Lantai 5 | L5-RAD-02 | Radiation 2 | 1.00 | W/m² |
| 3934 | 06/09/2026 | 23:01:00 | MB-L5-01Mainboard Lantai 5 | L5-HFT-01 | Heat Flow Temperature 1 | 24.70 | °C |
| 3935 | 06/09/2026 | 23:01:00 | MB-L5-01Mainboard Lantai 5 | L5-LUX-04 | Illuminance / LUX 4 | 0.10 | lux |
| 3936 | 06/09/2026 | 23:01:00 | WS-MOD-01Weather Station Module | WS-RH | Kelembapan Udara | 74.80 | %RH |
| 3937 | 06/09/2026 | 23:01:00 | MB-L5-01Mainboard Lantai 5 | L5-RAD-01 | Radiation 1 | 1.00 | W/m² |
| 3938 | 06/09/2026 | 23:01:00 | MB-L5-01Mainboard Lantai 5 | L5-AI-01 | Analog Input 1 | 3.05 | V |
| 3939 | 06/09/2026 | 23:01:00 | MB-L5-01Mainboard Lantai 5 | L5-LUX-02 | Illuminance / LUX 2 | 0.10 | lux |
| 3940 | 06/09/2026 | 23:01:00 | PWR-L5-01Power Meter L5 PZEM 01 | PZEM-L5-01-FREQ | PZEM L5-01 Frequency | 50.00 | Hz |
| 3941 | 06/09/2026 | 23:01:00 | PWR-L5-02Power Meter L5 PZEM 02 | PZEM-L5-02-ENERGY | PZEM L5-02 Energy | 0.04 | kWh |
| 3942 | 06/09/2026 | 23:01:00 | MB-L3-01Mainboard Lantai 3 | L3-LUX-01 | Illuminance / LUX 1 | 0.20 | lux |
| 3943 | 06/09/2026 | 23:01:00 | MB-L5-01Mainboard Lantai 5 | L5-LUX-06 | Illuminance / LUX 6 | 0.10 | lux |
| 3944 | 06/09/2026 | 23:01:00 | MB-L3-01Mainboard Lantai 3 | L3-AI-02 | Analog Input 2 | 3.12 | V |
| 3945 | 06/09/2026 | 23:01:00 | MB-L5-01Mainboard Lantai 5 | L5-AI-04 | Analog Input 4 | 3.05 | V |
| 3946 | 06/09/2026 | 23:01:00 | MB-L3-01Mainboard Lantai 3 | L3-SHT-01-RH | SHT20 1 Humidity | 45.00 | %RH |
| 3947 | 06/09/2026 | 23:01:00 | MB-L3-01Mainboard Lantai 3 | L3-LUX-03 | Illuminance / LUX 3 | 0.20 | lux |
| 3948 | 06/09/2026 | 23:01:00 | PWR-L5-01Power Meter L5 PZEM 01 | PZEM-L5-01-PF | PZEM L5-01 Power Factor | 0.37 | |
| 3949 | 06/09/2026 | 23:01:00 | WS-MOD-01Weather Station Module | WS-TEMP | Suhu Udara | 20.50 | °C |
| 3950 | 06/09/2026 | 23:01:00 | AC-REMOTE-01Remote AC | AC-FAN | AC Fan Speed | 0.00 | code |
| 3951 | 06/09/2026 | 23:01:00 | MB-L5-01Mainboard Lantai 5 | L5-BGT-03 | Black Globe Temperature 3 | 26.80 | °C |
| 3952 | 06/09/2026 | 23:01:00 | MB-L3-01Mainboard Lantai 3 | L3-SHT-03-T | SHT20 3 Temperature | 29.10 | °C |
| 3953 | 06/09/2026 | 23:01:00 | MB-L5-01Mainboard Lantai 5 | L5-LUX-01 | Illuminance / LUX 1 | 0.00 | lux |
| 3954 | 06/09/2026 | 23:01:00 | WS-MOD-01Weather Station Module | WS-DIR | Arah Angin | 78.70 | ° |
| 3955 | 06/09/2026 | 23:01:00 | MB-L3-01Mainboard Lantai 3 | L3-RAD-02 | Radiation 2 | 0.00 | W/m² |
| 3956 | 06/09/2026 | 23:01:00 | MB-L5-01Mainboard Lantai 5 | L5-ST-01 | Surface Temperature 1 | 24.90 | °C |
| 3957 | 06/09/2026 | 23:01:00 | MB-L3-01Mainboard Lantai 3 | L3-AI-05 | Analog Input 5 | 3.12 | V |
| 3958 | 06/09/2026 | 23:01:00 | MB-L5-01Mainboard Lantai 5 | L5-HFT-02 | Heat Flow Temperature 2 | 24.10 | °C |
| 3959 | 06/09/2026 | 23:01:00 | MB-L3-01Mainboard Lantai 3 | L3-LUX-02 | Illuminance / LUX 2 | 0.20 | lux |
| 3960 | 06/09/2026 | 23:01:00 | PWR-L5-02Power Meter L5 PZEM 02 | PZEM-L5-02-POWER | PZEM L5-02 Active Power | 0.00 | W |
| 3961 | 06/09/2026 | 23:01:00 | MB-L5-01Mainboard Lantai 5 | L5-AI-02 | Analog Input 2 | 3.05 | V |
| 3962 | 06/09/2026 | 23:01:00 | PWR-L5-01Power Meter L5 PZEM 01 | PZEM-L5-01-VOLT | PZEM L5-01 Voltage | 227.40 | V |
| 3963 | 06/09/2026 | 23:01:00 | AC-REMOTE-01Remote AC | AC-MODE | AC Operating Mode | 1.00 | code |
| 3964 | 06/09/2026 | 23:01:00 | MB-L3-01Mainboard Lantai 3 | L3-SHT-01-T | SHT20 1 Temperature | 29.10 | °C |
| 3965 | 06/09/2026 | 23:01:00 | MB-L3-01Mainboard Lantai 3 | L3-SHT-02-T | SHT20 2 Temperature | 29.20 | °C |
| 3966 | 06/09/2026 | 23:01:00 | PWR-L5-02Power Meter L5 PZEM 02 | PZEM-L5-02-PF | PZEM L5-02 Power Factor | 0.00 | |
| 3967 | 06/09/2026 | 23:01:00 | MB-L5-01Mainboard Lantai 5 | L5-BGT-01 | Black Globe Temperature 1 | 27.10 | °C |
| 3968 | 06/09/2026 | 23:01:00 | MB-L5-01Mainboard Lantai 5 | L5-AI-05 | Analog Input 5 | 3.05 | V |
| 3969 | 06/09/2026 | 23:01:00 | MB-L3-01Mainboard Lantai 3 | L3-AI-03 | Analog Input 3 | 3.12 | V |
| 3970 | 06/09/2026 | 23:01:00 | WS-MOD-01Weather Station Module | WS-WIND | Kecepatan Angin | 2.11 | m/s |
| 3971 | 06/09/2026 | 23:01:00 | PWR-L5-01Power Meter L5 PZEM 01 | PZEM-L5-01-CURR | PZEM L5-01 Current | 0.13 | A |
| 3972 | 06/09/2026 | 23:01:00 | MB-L5-01Mainboard Lantai 5 | L5-ST-02 | Surface Temperature 2 | 24.40 | °C |
| 3973 | 06/09/2026 | 23:01:00 | MB-L5-01Mainboard Lantai 5 | L5-SHT-01-RH | SHT20 1 Humidity | 45.10 | %RH |
| 3974 | 06/09/2026 | 23:00:00 | PWR-L5-01Power Meter L5 PZEM 01 | PZEM-L5-01-ENERGY | PZEM L5-01 Energy | 0.05 | kWh |
| 3975 | 06/09/2026 | 23:00:00 | MB-L5-01Mainboard Lantai 5 | L5-BGT-02 | Black Globe Temperature 2 | 27.00 | °C |
| 3976 | 06/09/2026 | 23:00:00 | PWR-L5-02Power Meter L5 PZEM 02 | PZEM-L5-02-VOLT | PZEM L5-02 Voltage | 227.20 | V |
| 3977 | 06/09/2026 | 23:00:00 | MB-L5-01Mainboard Lantai 5 | L5-AI-06 | Analog Input 6 | 3.05 | V |
| 3978 | 06/09/2026 | 23:00:00 | AC-REMOTE-01Remote AC | AC-POWER | AC Power State | 1.00 | state |
| 3979 | 06/09/2026 | 23:00:00 | MB-L3-01Mainboard Lantai 3 | L3-AI-04 | Analog Input 4 | 3.12 | V |
| 3980 | 06/09/2026 | 23:00:00 | MB-L3-01Mainboard Lantai 3 | L3-LUX-05 | Illuminance / LUX 5 | 0.30 | lux |
| 3981 | 06/09/2026 | 23:00:00 | MB-L5-01Mainboard Lantai 5 | L5-RAD-02 | Radiation 2 | 1.00 | W/m² |
| 3982 | 06/09/2026 | 23:00:00 | MB-L5-01Mainboard Lantai 5 | L5-HFT-01 | Heat Flow Temperature 1 | 24.80 | °C |
| 3983 | 06/09/2026 | 23:00:00 | MB-L5-01Mainboard Lantai 5 | L5-LUX-04 | Illuminance / LUX 4 | 0.10 | lux |
| 3984 | 06/09/2026 | 23:00:00 | WS-MOD-01Weather Station Module | WS-RH | Kelembapan Udara | 74.80 | %RH |
| 3985 | 06/09/2026 | 23:00:00 | MB-L5-01Mainboard Lantai 5 | L5-RAD-01 | Radiation 1 | 1.00 | W/m² |
| 3986 | 06/09/2026 | 23:00:00 | MB-L5-01Mainboard Lantai 5 | L5-AI-01 | Analog Input 1 | 3.05 | V |
| 3987 | 06/09/2026 | 23:00:00 | MB-L5-01Mainboard Lantai 5 | L5-LUX-02 | Illuminance / LUX 2 | 0.10 | lux |
| 3988 | 06/09/2026 | 23:00:00 | PWR-L5-01Power Meter L5 PZEM 01 | PZEM-L5-01-FREQ | PZEM L5-01 Frequency | 50.00 | Hz |
| 3989 | 06/09/2026 | 23:00:00 | PWR-L5-02Power Meter L5 PZEM 02 | PZEM-L5-02-ENERGY | PZEM L5-02 Energy | 0.04 | kWh |
| 3990 | 06/09/2026 | 23:00:00 | MB-L3-01Mainboard Lantai 3 | L3-LUX-01 | Illuminance / LUX 1 | 0.20 | lux |
| 3991 | 06/09/2026 | 23:00:00 | MB-L5-01Mainboard Lantai 5 | L5-LUX-06 | Illuminance / LUX 6 | 0.10 | lux |
| 3992 | 06/09/2026 | 23:00:00 | MB-L3-01Mainboard Lantai 3 | L3-AI-02 | Analog Input 2 | 3.12 | V |
| 3993 | 06/09/2026 | 23:00:00 | MB-L5-01Mainboard Lantai 5 | L5-AI-04 | Analog Input 4 | 3.05 | V |
| 3994 | 06/09/2026 | 23:00:00 | MB-L3-01Mainboard Lantai 3 | L3-SHT-01-RH | SHT20 1 Humidity | 45.00 | %RH |
| 3995 | 06/09/2026 | 23:00:00 | MB-L3-01Mainboard Lantai 3 | L3-LUX-03 | Illuminance / LUX 3 | 0.20 | lux |
| 3996 | 06/09/2026 | 23:00:00 | PWR-L5-01Power Meter L5 PZEM 01 | PZEM-L5-01-PF | PZEM L5-01 Power Factor | 0.38 | |
| 3997 | 06/09/2026 | 23:00:00 | WS-MOD-01Weather Station Module | WS-TEMP | Suhu Udara | 20.40 | °C |
| 3998 | 06/09/2026 | 23:00:00 | AC-REMOTE-01Remote AC | AC-FAN | AC Fan Speed | 0.00 | code |
| 3999 | 06/09/2026 | 23:00:00 | MB-L5-01Mainboard Lantai 5 | L5-BGT-03 | Black Globe Temperature 3 | 26.80 | °C |
| 4000 | 06/09/2026 | 23:00:00 | MB-L3-01Mainboard Lantai 3 | L3-SHT-03-T | SHT20 3 Temperature | 29.20 | °C |
Menampilkan maksimal 100 data per halaman